Regional Weather Roundup
Issued by NWS

Home | Current Version | Previous Version | Graphics & Text | Print | Product List | Glossary On
Versions: 1 2 3 4 5 6 7 8 9 10 11 12 13 14 15 16 17 18 19 20 21 22 23 24 25 26 27 28 29 30 31 32 33 34 35 36 37 38 39 40 41 42 43 44 45 46 47 48 49 50
000
ASUS43 KBIS 021602
RWRND

NORTH DAKOTA REGIONAL WEATHER ROUNDUP
NATIONAL WEATHER SERVICE BISMARCK ND
1100 AM CDT TUE JUN 02 2015

NOTE: "FAIR" INDICATES FEW OR NO CLOUDS BELOW 12,000 FEET WITH NO
SIGNIFICANT WEATHER AND/OR OBSTRUCTIONS TO VISIBILITY.


NDZ001>003-009>011-017-021700-
NORTHWEST NORTH DAKOTA

CITY           SKY/WX    TMP DP  RH WIND       PRES   REMARKS
WILLISTON      RAIN      57  55  93 NE9       29.81F FOG
MINOT          CLOUDY    64  60  87 N9        29.80S
MINOT AFB      CLOUDY    64  64 100 E10       29.79F
$$

NDZ018>021-031>035-040>046-021700-
SOUTHWEST NORTH DAKOTA

CITY           SKY/WX    TMP DP  RH WIND       PRES   REMARKS
BISMARCK       CLOUDY    69  63  81 SE6       29.77R
DICKINSON      PTSUNNY   68  58  70 VRB5      29.80R
GARRISON         N/A     68  60  75 N5        29.80R
HETTINGER ARPT SUNNY     71  57  61 SW7       29.80F
$$

NDZ004>008-012>016-024-026-027-054-021700-
NORTHEAST NORTH DAKOTA

CITY           SKY/WX    TMP DP  RH WIND       PRES   REMARKS
GRAND FORKS    CLOUDY    63  56  78 S13       29.82F
GRND FRKS AFB  CLOUDY    63  56  78 S10       29.81F
DEVILS LAKE    CLOUDY    66  57  72 SE3       29.79S
$$

NDZ022-023-025-028>030-036>039-047>053-021700-
SOUTHEAST NORTH DAKOTA

CITY           SKY/WX    TMP DP  RH WIND       PRES   REMARKS
FARGO          CLOUDY    65  55  70 S18G26    29.82F
JAMESTOWN      CLOUDY    64  58  80 S13       29.78R
$$




USA.gov is the U.S. government's official web portal to all federal, state and local government web resources and services.